Weather History for Ogallala, NE

Change the Weather History Date:

Thursday, June 28, 2012

  Actual Average Record
Temperature  
Mean Temperature 80 °F -  
Max Temperature 100 °F 89 °F 120 °F (1999)
Min Temperature 60 °F 59 °F 12 °F (1999)
Cooling Degree Days 14    
Growing Degree Days 30 (Base 50)    
Moisture  
Dew Point 55 °F    
Average Humidity 48    
Maximum Humidity 87    
Minimum Humidity 19    
Precipitation  
Precipitation 0.01 in - - ()
Sea Level Pressure  
Sea Level Pressure 29.99 in    
Wind  
Wind Speed 4 mph (South)    
Max Wind Speed 25 mph    
Max Gust Speed 46 mph    
Visibility 10 miles    
Events Thunderstorm    
Averages and records for this station are not official NWS values.
T = Trace of Precipitation, MM = Missing Value Source: NWS Daily Summary

Daily Weather History Graph

Daily Weather History Graph

Search for Another Location

Airport:

Trip Planner

Search our weather history database for the weather conditions in past years. The results will help you decide how hot, cold, wet, or windy it might be!

Date:

Astronomy

Jun. 28, 2012 Rise Set
Actual Time 5:17 AM MDT 8:23 PM MDT
Civil Twilight 4:43 AM MDT 8:57 PM MDT
Nautical Twilight 4:00 AM MDT 9:40 PM MDT
Astronomical Twilight 3:09 AM MDT 10:31 PM MDT
Moon 2:59 PM MDT (6/28) 12:53 AM MDT (6/28)
Length of Visible Light 16h 13m
Length of Day
15h 06m
Waxing Gibbous, 68% of the Moon is Illuminated
Jun 28
Waxing Gibbous
Jul 3
Full
Jul 10
Last Quarter
Jul 18
New
Jul 26
First Quarter

Hourly Weather History & Observations

Time (MDT) Temp. Heat Index Dew Point Humidity Pressure Visibility Wind Dir Wind Speed Gust Speed Precip Events Conditions
12:15 AM 72.5 °F - 56.8 °F 58% 29.94 in 10.0 mi Calm Calm - N/A   Clear
12:35 AM 69.8 °F - 57.7 °F 65% 29.94 in 10.0 mi Calm Calm - N/A   Clear
12:55 AM 65.7 °F - 59.2 °F 80% 29.95 in 10.0 mi Calm Calm - N/A   Clear
1:15 AM 64.0 °F - 58.5 °F 82% 29.95 in 10.0 mi WSW 4.6 mph - N/A   Clear
1:35 AM 65.1 °F - 59.0 °F 81% 29.95 in 10.0 mi SW 4.6 mph - N/A   Clear
1:55 AM 63.5 °F - 58.5 °F 84% 29.95 in 10.0 mi West 5.8 mph - N/A   Clear
2:15 AM 63.5 °F - 58.8 °F 85% 29.96 in 10.0 mi West 5.8 mph - N/A   Clear
2:35 AM 63.3 °F - 58.8 °F 85% 29.96 in 10.0 mi West 5.8 mph - N/A   Clear
2:55 AM 62.6 °F - 58.1 °F 85% 29.97 in 10.0 mi Calm Calm - N/A   Clear
3:15 AM 65.1 °F - 58.1 °F 78% 29.98 in 10.0 mi Calm Calm - N/A   Clear
3:35 AM 66.2 °F - 57.2 °F 73% 29.98 in 10.0 mi NW 3.5 mph - N/A   Clear
3:55 AM 64.4 °F - 58.1 °F 80% 29.98 in 10.0 mi Calm Calm - N/A   Clear
4:15 AM 64.6 °F - 57.6 °F 78% 29.99 in 10.0 mi Calm Calm - N/A   Clear
4:35 AM 62.1 °F - 56.7 °F 82% 30.00 in 10.0 mi Calm Calm - N/A   Clear
4:55 AM 62.8 °F - 56.5 °F 80% 30.00 in 10.0 mi East 3.5 mph - N/A   Clear
5:15 AM 61.2 °F - 56.5 °F 85% 30.01 in 10.0 mi Calm Calm - N/A   Clear
5:35 AM 60.4 °F - 55.6 °F 84% 30.01 in 10.0 mi Calm Calm - N/A   Clear
5:55 AM 60.1 °F - 56.3 °F 87% 30.01 in 10.0 mi Calm Calm - N/A   Clear
6:15 AM 62.8 °F - 58.1 °F 85% 30.01 in 10.0 mi Calm Calm - N/A   Clear
6:35 AM 64.4 °F - 58.6 °F 82% 30.03 in 10.0 mi NE 3.5 mph - N/A   Clear
6:55 AM 66.0 °F - 59.0 °F 78% 30.04 in 10.0 mi Calm Calm - N/A   Clear
7:15 AM 67.1 °F - 58.8 °F 75% 30.04 in 10.0 mi Calm Calm - N/A   Clear
7:35 AM 67.6 °F - 58.1 °F 71% 30.04 in 10.0 mi Calm Calm - N/A   Clear
7:55 AM 69.1 °F - 59.7 °F 72% 30.05 in 10.0 mi Calm Calm - N/A   Clear
8:15 AM 72.5 °F - 58.6 °F 62% 30.04 in 10.0 mi Calm Calm - N/A   Clear
8:35 AM 73.9 °F - 57.9 °F 57% 30.04 in 10.0 mi East 3.5 mph - N/A   Clear
8:55 AM 76.3 °F - 58.6 °F 54% 30.04 in 10.0 mi Calm Calm - N/A   Clear
9:15 AM 79.0 °F - 57.9 °F 48% 30.04 in 10.0 mi Calm Calm - N/A   Clear
9:35 AM 81.7 °F 81.5 °F 57.0 °F 43% 30.04 in 10.0 mi Calm Calm - N/A   Clear
9:55 AM 85.3 °F 83.5 °F 53.1 °F 33% 30.03 in 10.0 mi SW 3.5 mph - N/A   Clear
10:15 AM 86.7 °F 84.9 °F 54.7 °F 33% 30.04 in 10.0 mi SE 3.5 mph - N/A   Clear
10:35 AM 88.3 °F - 52.5 °F 29% 30.04 in 10.0 mi SW 5.8 mph - N/A   Clear
10:55 AM 89.1 °F - 52.0 °F 28% 30.04 in 10.0 mi SSW 5.8 mph - N/A   Clear
11:15 AM 90.3 °F - 52.5 °F 27% 30.04 in 10.0 mi South 3.5 mph - N/A   Clear
11:35 AM 92.1 °F - 50.7 °F 24% 30.04 in 10.0 mi Calm Calm - N/A   Clear
11:55 AM 93.2 °F - 50.9 °F 24% 30.04 in 10.0 mi SSW 6.9 mph - N/A   Clear
12:15 PM 93.2 °F - 50.2 °F 23% 30.03 in 10.0 mi NW 3.5 mph - N/A   Clear
12:35 PM 93.4 °F - 50.4 °F 23% 30.03 in 10.0 mi WNW 5.8 mph - N/A   Clear
12:55 PM 94.8 °F - 50.9 °F 22% 30.02 in 10.0 mi SW 4.6 mph - N/A   Clear
1:15 PM 94.8 °F - 51.1 °F 23% 30.01 in 10.0 mi Calm Calm - N/A   Clear
1:35 PM 95.5 °F - 50.9 °F 22% 30.00 in 10.0 mi SW 3.5 mph - N/A   Clear
1:55 PM 96.4 °F - 51.8 °F 22% 30.00 in 10.0 mi West 3.5 mph - N/A   Clear
2:15 PM 97.7 °F - 50.4 °F 20% 29.99 in 10.0 mi SE 3.5 mph - N/A   Clear
2:35 PM 98.6 °F - 50.7 °F 20% 29.99 in 10.0 mi Calm Calm - N/A   Clear
2:55 PM 98.2 °F - 50.9 °F 20% 29.98 in 10.0 mi South 4.6 mph - N/A   Clear
3:15 PM 99.1 °F - 52.2 °F 21% 29.98 in 10.0 mi East 6.9 mph - N/A   Clear
3:35 PM 99.0 °F - 51.1 °F 20% 29.97 in 10.0 mi South 8.1 mph - N/A   Clear
3:55 PM 99.3 °F - 50.4 °F 19% 29.97 in 10.0 mi SSE 5.8 mph - N/A   Clear
4:15 PM 99.5 °F - 50.4 °F 19% 29.96 in 10.0 mi SE 8.1 mph - N/A   Clear
4:35 PM 99.0 °F - 50.9 °F 20% 29.95 in 10.0 mi East 9.2 mph - N/A   Clear
4:55 PM 99.0 °F - 51.6 °F 20% 29.95 in 10.0 mi SE 8.1 mph - N/A   Clear
5:15 PM 99.1 °F - 51.8 °F 20% 29.95 in 10.0 mi East 12.7 mph - N/A   Clear
5:35 PM 97.5 °F 95.0 °F 53.2 °F 22% 29.94 in 10.0 mi ESE 10.4 mph - N/A   Clear
5:55 PM 97.3 °F 95.1 °F 53.6 °F 23% 29.93 in 10.0 mi ESE 9.2 mph - N/A   Clear
6:15 PM 96.4 °F 94.3 °F 54.3 °F 24% 29.93 in 10.0 mi East 11.5 mph - N/A   Clear
6:35 PM 94.6 °F 92.6 °F 55.0 °F 26% 29.93 in 10.0 mi East 11.5 mph - N/A   Clear
6:55 PM 94.1 °F 92.2 °F 55.6 °F 27% 29.93 in 10.0 mi East 9.2 mph - N/A   Clear
7:15 PM 92.7 °F 90.9 °F 56.3 °F 29% 29.93 in 10.0 mi East 10.4 mph - N/A   Clear
7:35 PM 90.5 °F 89.8 °F 59.0 °F 35% 29.93 in 10.0 mi East 11.5 mph - N/A   Clear
7:55 PM 89.4 °F 89.0 °F 60.1 °F 37% 29.93 in 10.0 mi East 10.4 mph - N/A   Clear
8:15 PM 88.3 °F 88.1 °F 60.4 °F 39% 29.93 in 10.0 mi East 8.1 mph - N/A   Clear
8:35 PM 85.8 °F 86.3 °F 62.2 °F 45% 29.94 in 10.0 mi ESE 9.2 mph - N/A Thunderstorm Clear
8:55 PM 87.1 °F - 51.1 °F 29% 29.95 in 10.0 mi SSW 21.9 mph 40.3 mph N/A Thunderstorm Scattered Clouds
9:15 PM 81.1 °F - 52.9 °F 37% 29.98 in 7.0 mi SW 25.3 mph 46.0 mph N/A Thunderstorm Thunderstorm
9:35 PM 79.5 °F - 52.9 °F 40% 29.95 in 10.0 mi SSW 18.4 mph 27.6 mph N/A   Scattered Clouds
9:55 PM 76.8 °F - 56.1 °F 49% 29.95 in 10.0 mi West 12.7 mph 24.2 mph N/A Thunderstorm Clear
10:35 PM 76.1 °F - 55.4 °F 49% 29.95 in 10.0 mi West 10.4 mph - N/A   Clear
10:55 PM 76.5 °F - 54.0 °F 46% 29.95 in 10.0 mi SW 11.5 mph 17.3 mph N/A   Clear
11:15 PM 77.2 °F - 53.4 °F 44% 29.98 in 10.0 mi West 8.1 mph - N/A   Clear
11:35 PM 76.5 °F - 53.6 °F 45% 29.98 in 10.0 mi SSW 5.8 mph - N/A   Clear
11:55 PM 76.1 °F - 54.0 °F 46% 29.99 in 10.0 mi South 3.5 mph - N/A   Clear